sat.trackr.live / text

‹ back to catalog

STARLINK-35260

NORAD 65751 · 2025-216T

PAYLOAD ACTIVE UNKNOWN

§ Identity

Operator
Country
US
Launch date
2025-09-25
Launch site
AFETR
Launch vehicle
Mass (kg)
RCS (m²)

Purposes: comms

External: N2YO · Heavens-Above · Gunter

§ Orbital elements

Epoch: 2026-09-20T02:40:00.984864Z

Period
93.85 min
Inclination
53.1585°
Eccentricity
0.0001220
Mean motion
15.34412990 rev/d
Perigee alt
461.8 km
Apogee alt
463.5 km
Semi-major
6,840.8 km
B*
4.1864e-4
RAAN
147.4614°
Arg perigee
70.3906°
Mean anomaly
289.7229°
Rev number
5,634

§ Raw data

STARLINK-352601 65751U 25216T   26263.11112251  .00013800  00000+0  41864-3 0  99902 65751  53.1585 147.4614 0001220  70.3906 289.7229 15.34412990 56345

JSON: /api/v1/satellites/65751 · /tle

For live sub-satellite position, see the globe view (requires WebGL).

§ Visibility from observer

Set your observer location to see the next 7 days of passes ≥ 10°. The values pass through the URL so the page stays shareable.

No JS? Fill the form by hand. The geolocation button needs JavaScript.